"Pseudo-MPEC" for P10NHoy

Created 2019 May 21 8:07:15 UT using Find_Orb

Click here for an explanation of pseudo-MPECs

 
 Astrometry: 
     P10NHoy  C2019 05 08V3*s2y'LNHS-dg\):cm9h*)AstrometryU!JQ:kSJ%8D77%=@'pMF51
     P10NHoy  C2019 05 08k^dNx'uko%t$Zx/Zl!h=;==@47!*?FB)utdJfZ*:8dredacted;9F51
     P10NHoy  C2019 05 08Hyclick+#A)G=74V8rO_oX4iv^U0BJIacK:HN[%1(B14y0LK_e@qF51
     P10NHoy  C2019 05 08ydn8s$4C'u`R5cZphkR0V-x/=K[#jUtD?hhere\formmJ6tFQ'5:F51
     P10NHoy KC2019 05 11;`(a8l=ykM=pb@:=n^7]t**EtXkK9ZeexplanationU@G3n329`OH21
     P10NHoy KC2019 05 11/HII@bWU\a_'[qLa1-@'N\:Bo'50VxXZGxxc/SFpl',cTmN;snB!H21

Station data:
(F51) Pan-STARRS 1, Haleakala  (N20.707235 W156.255910)  US/Hawaii.
   Observers N. Primak, A. Schultz, S. Watters, J. Thiel, T. Goggia. Measurer
   PS1 Science Consortium. 1.8-m Ritchey-Chrétien + CCD.
(H21) Astronomical Research Observatory, Westfield  (N39.483057 W87.968270)
   US/Illinois. 0.76-m f/3.0 astrograph + CCD.

Orbital elements:  P10NHoy
   Perihelion 2018 Sep 23.203495 +/- 346 TT =  4:53:01 (JD 2458384.703495)
Epoch 2019 May 11.0 TT = JDT 2458614.5   Earth MOID: 0.6654   Ma: 0.0080
M  93.44899372 +/- 90               (J2000 ecliptic)          AutoNEOCP
n   0.40665976 +/- 0.186            Peri.  345.36274 +/- 53
a   1.80432697 +/- 0.551            Node   144.15684 +/- 51
e   0.0860457 +/- 0.26              Incl.   21.85723 +/- 33
P   2.42/885.24d           H 20.0   G  0.15   U 11.6  SR
q 1.64907238 +/- 0.973    Q 1.95958157 +/- 8.65
From 6 observations 2019 May 8-11; mean residual 0".13
Residuals in arcseconds: 
190508 F51  .10-  .10+    190508 F51  .00   .00     190511 H21  .03-  .03-    
190508 F51  .24-  .08-    190508 F51  .34+  .02-    190511 H21  .02+  .03+    

Ephemerides (geocentric):
Date (UTC) HH   RA              Dec         delta   r     elong  mag " sig PA
---- -- -- --  -------------   -----------  ------ ------ -----  --- ---- ---
2019 05 21 08  16 06 59.725   +24 34 20.51  .97612 1.8378 135.1 22.4 1102 146
2019 05 21 09  16 06 56.816   +24 34 19.72  .97619 1.8379 135.1 22.4 1110 146
2019 05 21 10  16 06 53.907   +24 34 18.87  .97625 1.8379 135.1 22.4 1119 146
2019 05 21 11  16 06 50.998   +24 34 17.95  .97632 1.8380 135.1 22.4 1128 146
2019 05 21 12  16 06 48.090   +24 34 16.97  .97638 1.8380 135.1 22.4 1136 146
2019 05 21 13  16 06 45.181   +24 34 15.92  .97645 1.8381 135.1 22.4 1145 146
2019 05 21 14  16 06 42.272   +24 34 14.81  .97652 1.8381 135.1 22.4 1154 146
2019 05 21 15  16 06 39.363   +24 34 13.63  .97658 1.8381 135.1 22.4 1163 146
2019 05 21 16  16 06 36.454   +24 34 12.39  .97665 1.8382 135.1 22.4 1172 146
2019 05 21 17  16 06 33.545   +24 34 11.08  .97672 1.8382 135.1 22.4 1181 146
2019 05 21 18  16 06 30.636   +24 34 09.71  .97678 1.8383 135.1 22.4 1190 146
2019 05 21 19  16 06 27.727   +24 34 08.27  .97685 1.8383 135.1 22.4 1199 146
2019 05 21 20  16 06 24.818   +24 34 06.77  .97692 1.8384 135.1 22.4 1208 146
2019 05 21 21  16 06 21.909   +24 34 05.20  .97699 1.8384 135.1 22.4 1217 146
2019 05 21 22  16 06 19.001   +24 34 03.57  .97705 1.8384 135.1 22.4 1226 146
2019 05 21 23  16 06 16.092   +24 34 01.87  .97712 1.8385 135.1 22.4 1236 146
2019 05 22 00  16 06 13.183   +24 34 00.11  .97719 1.8385 135.1 22.4 1245 146
2019 05 22 01  16 06 10.274   +24 33 58.28  .97726 1.8386 135.1 22.4 1254 146
2019 05 22 02  16 06 07.366   +24 33 56.39  .97733 1.8386 135.1 22.4 1263 146
2019 05 22 03  16 06 04.457   +24 33 54.43  .97740 1.8387 135.1 22.4 1273 146
2019 05 22 04  16 06 01.548   +24 33 52.41  .97747 1.8387 135.1 22.4 1282 146
2019 05 22 05  16 05 58.640   +24 33 50.32  .97754 1.8388 135.1 22.4 1292 146
2019 05 22 06  16 05 55.732   +24 33 48.17  .97761 1.8388 135.1 22.4 1301 146
2019 05 22 07  16 05 52.823   +24 33 45.96  .97768 1.8388 135.1 22.4 1311 146
2019 05 22 08  16 05 49.915   +24 33 43.67  .97775 1.8389 135.1 22.4 1320 146
2019 05 22 09  16 05 47.007   +24 33 41.33  .97782 1.8389 135.0 22.4 1330 146
2019 05 22 10  16 05 44.099   +24 33 38.92  .97789 1.8390 135.0 22.4 1339 146
2019 05 22 11  16 05 41.192   +24 33 36.44  .97796 1.8390 135.0 22.4 1349 146
2019 05 22 12  16 05 38.284   +24 33 33.90  .97803 1.8391 135.0 22.4 1359 146
2019 05 22 13  16 05 35.377   +24 33 31.29  .97810 1.8391 135.0 22.4 1369 146
2019 05 22 14  16 05 32.469   +24 33 28.62  .97818 1.8392 135.0 22.4 1378 146
2019 05 22 15  16 05 29.562   +24 33 25.89  .97825 1.8392 135.0 22.4 1388 146
2019 05 22 16  16 05 26.655   +24 33 23.09  .97832 1.8392 135.0 22.4 1398 146
2019 05 22 17  16 05 23.748   +24 33 20.22  .97839 1.8393 135.0 22.4 1408 146
2019 05 22 18  16 05 20.842   +24 33 17.29  .97847 1.8393 135.0 22.4 1418 146
2019 05 22 19  16 05 17.935   +24 33 14.30  .97854 1.8394 135.0 22.4 1428 146
2019 05 22 20  16 05 15.029   +24 33 11.24  .97861 1.8394 135.0 22.4 1438 146
2019 05 22 21  16 05 12.123   +24 33 08.11  .97869 1.8395 135.0 22.4 1448 146
2019 05 22 22  16 05 09.218   +24 33 04.92  .97876 1.8395 135.0 22.4 1458 146
2019 05 22 23  16 05 06.312   +24 33 01.67  .97884 1.8395 135.0 22.4 1468 146
2019 05 23 00  16 05 03.407   +24 32 58.35  .97891 1.8396 135.0 22.4 1479 146
2019 05 23 01  16 05 00.502   +24 32 54.96  .97899 1.8396 135.0 22.4 1489 146
2019 05 23 02  16 04 57.597   +24 32 51.51  .97906 1.8397 135.0 22.4 1499 146
2019 05 23 03  16 04 54.692   +24 32 48.00  .97914 1.8397 135.0 22.4 1509 146
2019 05 23 04  16 04 51.788   +24 32 44.42  .97921 1.8398 135.0 22.4 1520 146
2019 05 23 05  16 04 48.884   +24 32 40.78  .97929 1.8398 135.0 22.4 1530 146
2019 05 23 06  16 04 45.980   +24 32 37.07  .97936 1.8399 134.9 22.4 1541 146
2019 05 23 07  16 04 43.077   +24 32 33.30  .97944 1.8399 134.9 22.4 1551 146